Location: Faselis Harabeleri
(36.5244°N, 30.5503°E)
Time: 19:27:09
(UTC+00:00)

Daily predictions for brighter satellites

Satellite Brightness Start Highest point End
(mag) Time Altitude Azimuth Time Altitude Azimuth Time Altitude Azimuth
ADEOS 4.2 16:35:45 10° SE 16:40:31 37° ENE 16:45:17 10° N
Cosmos 841 Rocket 3.5 16:36:08 10° S 16:41:14 59° ESE 16:46:20 10° NNE
Meteor 2-4 Rocket 4.5 16:36:03 10° N 16:41:25 34° ENE 16:46:42 10° SE
Cosmos 2292 Rocket 3.7 16:38:49 10° N 16:42:23 34° ENE 16:45:21 10° SE
Cosmos 990 Rocket 4.1 16:37:18 10° NNW 16:42:32 86° WSW 16:47:41 10° SSE
Cosmos 1726 3.1 16:41:16 10° SE 16:43:04 16° E 16:44:53 10° NE
Kosmos-1783 4.1 16:43:04 10° S 16:46:23 27° SE 16:48:36 10° ENE
Cosmos 1844 3.6 16:44:43 10° NNW 16:50:18 80° ENE 16:55:51 10° SSE
Aureole 1 Rocket 2.8 16:48:13 10° N 16:52:17 51° ENE 16:55:35 10° SE
Tsikada Rocket 4.3 16:48:49 10° N 16:54:50 46° E 17:00:53 10° SSE
Cosmos 2016 Rocket 4.0 16:49:37 10° S 16:55:43 88° ESE 17:01:51 10° N
Cosmos 1743 3.1 16:52:32 10° SSE 16:55:48 34° E 16:59:04 10° NNE
CZ-4B R/B 4.3 16:51:57 10° ESE 16:56:15 24° ENE 17:00:31 10° NNE
OAO 2 Rocket 3.3 16:51:24 10° W 16:56:17 74° S 17:00:44 13° E
NOSS 3-1 (A) 4.4 16:52:23 10° NW 17:00:14 80° WSW 17:09:28 10° SSE
Cosmos 1674 4.3 17:00:10 10° NE 17:01:41 13° ENE 17:01:56 12° E
CZ-4B R/B 3.5 16:59:25 10° SE 17:02:40 31° ENE 17:06:04 10° N
Iridium 4 Rocket 3.6 17:00:56 10° NNE 17:04:44 33° E 17:08:30 10° SSE
Helios 1B rocket 3.7 17:01:09 10° S 17:04:48 41° W 17:08:29 10° NNW
Resurs 1-3 3.5 17:00:31 10° SSE 17:04:48 68° ENE 17:09:07 10° N
SPOT 1/Viking Rocket 3.6 16:59:50 10° SSE 17:04:56 60° ENE 17:10:02 10° N
ATLAS CENTAUR R/B 3.2 17:06:51 10° NNW 17:12:12 64° NE 17:19:20 14° SE
Cosmos 2360 Rocket 3.7 17:07:41 10° SW 17:12:57 39° WNW 17:18:14 10° N
USA 215 4.1 17:08:20 10° ENE 17:13:41 26° SE 17:18:59 10° S
ARGOS Delta rocket 4.2 17:09:30 10° SSE 17:14:35 51° ENE 17:19:26 10° N
Okean O Rocket 3.1 17:17:08 18° E 17:18:13 19° ENE 17:21:23 10° NNE
Cosmos 1898 Rocket 3.5 17:13:29 10° NNW 17:18:49 88° ENE 17:24:04 10° SSE
Cosmos 2237 Rocket 3.7 17:23:14 16° ENE 17:23:14 16° ENE 17:25:17 10° ENE
USA 306 2.0 17:19:33 10° SSW 17:22:22 61° SE 17:24:56 16° NE
Resurs 01 Rocket 2.1 17:19:32 17° SE 17:22:27 39° ENE 17:26:35 10° N
ACS3 Solar Sail 2.9 17:19:51 18° ESE 17:23:06 27° ENE 17:28:20 10° NNE
Cosmos 1151 Rocket 2.9 17:19:36 10° N 17:23:53 87° ENE 17:28:06 10° S
Cosmos 1340 2.7 17:21:01 10° SSW 17:24:14 64° W 17:27:29 10° N
Meteor PRIRODA 3.5 17:22:41 10° S 17:25:59 75° WSW 17:29:17 10° NNW
USA 186 2.2 17:25:33 31° ESE 17:26:26 39° ENE 17:29:28 10° N
Cosmos 1814 Rocket 4.2 17:22:20 10° S 17:27:25 48° ESE 17:32:30 10° NNE
OAO 3 Copernicus 4.5 17:23:42 10° W 17:28:41 63° SSW 17:31:26 26° ESE
Cosmos 2333 Rocket 4.2 17:24:37 10° WSW 17:29:40 31° WNW 17:34:46 10° N
Cosmos 2219 Rocket 3.1 17:28:18 10° SW 17:33:48 52° WNW 17:39:20 10° NNE
ATLAS 3B R/B 3.2 17:26:17 10° NW 17:34:07 72° WSW 17:41:37 10° SSE
Okean-O 4.4 17:34:45 16° ENE 17:34:45 16° ENE 17:37:05 10° NNE
Helios 1A 4.0 17:32:15 10° N 17:36:09 46° WNW 17:40:01 10° SSW
Cosmos 44 Rocket 3.9 17:33:19 10° NNW 17:37:40 35° NE 17:38:58 30° E
CSL-04 Rocket 3.8 17:35:13 22° SE 17:38:30 51° ENE 17:43:39 10° N
BlueWalker 3 4.4 17:38:55 10° N 17:40:11 11° NNE 17:41:17 10° NE
USA 229 DEB 4.0 17:35:36 10° NNW 17:43:15 71° NE 17:48:31 24° SE
USA 229 4.0 17:35:46 10° NNW 17:43:24 71° ENE 17:48:36 25° SE
CZ-4B R/B 4.4 17:41:45 10° S 17:46:16 45° W 17:50:49 10° NNW
Timation 2 Rocket 4.1 17:43:30 10° NNW 17:49:50 78° WSW 17:55:13 16° SSE
Cosmos 1980 4.2 17:44:53 10° SSE 17:50:00 36° ESE 17:55:07 10° NE
SJ-6B 4.3 17:48:12 10° SSW 17:51:32 32° W 17:54:51 10° NNW
Cosmos 1766 Rocket 3.5 17:47:29 10° S 17:51:49 83° W 17:56:11 10° N
Cosmos 2322 4.1 17:48:45 10° SSW 17:54:20 66° WNW 17:59:59 10° NNE
Cosmos 1842 4.0 17:51:08 10° N 17:53:35 33° NE 17:53:35 33° NE
Meteor 2-17 Rocket 4.5 17:52:26 10° N 17:58:22 55° E 18:00:28 37° SE
GEOS 3 Rocket 4.2 17:55:00 19° S 17:58:37 52° WSW 18:03:42 10° NW
Cosmos 1891 Rocket 4.3 17:55:04 10° S 18:01:05 87° E 18:07:14 10° N
Cosmos 1066 Rocket 4.3 17:57:08 10° N 18:03:01 81° W 18:07:17 19° S
Meteor 2-10 4.3 18:03:22 47° ESE 18:03:55 48° E 18:09:18 10° NNE
CZ-4 R/B 3.0 18:06:31 12° SSW 18:09:30 30° W 18:12:53 10° NW
Cosmos 1400 Rocket 3.1 18:07:02 10° NNW 18:10:47 59° W 18:11:19 53° SW
COSMOS 2428 3.3 18:07:47 10° SW 18:13:22 56° WNW 18:19:00 10° NNE
CSL-04 Debris 4.3 18:10:19 26° S 18:13:27 71° WSW 18:18:56 10° NNW
Cosmos 1707 4.1 18:12:49 10° N 18:14:39 28° N 18:14:39 28° N
Cosmos 1536 4.0 18:20:01 32° N 18:20:01 32° N 18:22:11 10° N
Nadezhda 4 Rocket 4.0 18:14:31 10° N 18:20:39 54° E 18:21:01 54° E
Cosmos 1464 Rocket 3.9 18:18:42 18° S 18:23:28 89° E 18:29:51 10° N
Lacrosse 4 Rocket 1.7 18:20:47 10° NNW 18:24:34 66° NW 18:24:34 66° NW
Cosmos 1943 Rocket 3.4 18:21:15 10° N 18:24:57 26° NE 18:24:57 26° NE
USA 59 Rocket 1.0 18:22:17 10° NNW 18:25:31 40° NNE 18:25:31 40° NNE
Meteor 1-11 Rocket 3.5 18:27:19 71° SSE 18:27:50 77° E 18:33:26 10° NNE
Terra 3.7 18:30:29 19° NNE 18:30:29 19° NNE 18:32:12 10° NNE
Cosmos 1356 Rocket 4.3 18:25:10 10° N 18:28:04 44° N 18:28:04 44° N
CZ-4B R/B 4.3 18:33:16 21° SSW 18:36:31 41° W 18:41:39 10° NNW
Meteor 2-9 Rocket 4.4 18:38:56 54° NNE 18:38:56 54° NNE 18:43:03 10° N
ERS-1 Rocket 4.2 18:39:40 30° NNE 18:39:40 30° NNE 18:42:30 10° N
OAO 2 Rocket 4.3 18:36:02 10° W 18:39:33 37° SW 18:39:33 37° SW
Cosmos 2278 Rocket 2.6 18:36:24 10° NNW 18:41:07 53° NNE 18:41:07 53° NNE
Cosmos 2034 Rocket 3.8 18:41:53 80° SSE 18:42:14 84° E 18:48:27 10° N
SPOT 5 3.6 18:45:11 47° N 18:45:11 47° N 18:48:27 10° NNW
Okean O Rocket 3.1 18:54:28 33° W 18:54:28 33° W 18:58:13 10° NNW
USA 215 3.3 18:50:27 10° NE 18:56:58 74° NW 19:03:28 10° SW
Resurs 01 Rocket 4.2 18:57:01 12° WSW 18:58:59 16° W 19:01:44 10° NW
Aureole 3 Rocket 4.4 19:01:29 48° SSW 19:03:50 76° W 19:10:02 10° N
Cosmos 2237 Rocket 2.8 19:04:47 52° WNW 19:05:08 53° WNW 19:10:38 10° NNE
ACS3 Solar Sail 2.7 19:05:09 37° SW 19:06:50 44° W 19:12:56 10° NNW
USA 267 4.3 19:29:00 34° NNE 19:29:00 34° NNE 19:34:12 10° NNW
Cosmos 1943 Rocket 4.4 20:04:43 10° NW 20:06:28 19° NW 20:06:28 19° NW
USA 281 4.4 23:47:53 36° NNE 23:47:53 36° NNE 23:52:06 10° N
